User: anonymous   Login
Location: Newark
(45.5000°N, 11.4167°E)
Time: 04:32:43
(UTC+00:00)
Language:

Tiros 1 - Orbit

View from above orbital plane
View from above orbital plane
View from above satellite
View from above satellite

Ground track
Ground track

The orbit data is extracted from the following two-line orbital elements,

1    29U 60002B   19231.59111229 -.00000144  00000-0  96364-5 0  9998
2    29  48.3799 297.8757 0023781  15.5642 344.5996 14.74313933173977
Epoch (UTC): 19 August 2019 14:11:12
Eccentricity: 0.0023781
inclination: 48.3799°
perigee height: 630 km
apogee height: 664 km
right ascension of ascending node: 297.8757°
argument of perigee: 15.5642°
revolutions per day: 14.74313933
mean anomaly at epoch: 344.5996°
orbit number at epoch: 17397

The dashed part of the orbit path shows where the satellite is in the earth's shadow,  

DLR